Plymouth, NH

8:09 AM EST on January 23, 2018 (GMT -0500)
Plymouth

Weather History for K1P1 - August, 2013

Change the Weather History Date:

Sunday, August 25, 2013

  Actual Average (KLCI) Record (KLCI)
Temperature  
Mean Temperature 60 °F -  
Max Temperature 79 °F 76 °F 93 °F (2007)
Min Temperature 42 °F 54 °F 44 °F (1987)
Degree Days  
Heating Degree Days 4    
Growing Degree Days 10 (Base 50)    
Moisture  
Dew Point 50 °F    
Average Humidity 74    
Maximum Humidity 99    
Minimum Humidity 27    
Precipitation  
Precipitation 0.00 in - - ()
Sea Level Pressure  
Sea Level Pressure 30.28 in    
Wind  
Wind Speed 1 mph (West)    
Max Wind Speed 9 mph    
Max Gust Speed -    
Visibility 7 miles    
Events Fog    
Averages and records for this station are not official NWS values.
T = Trace of Precipitation, MM = Missing Value Source: NWS Daily Summary

Daily Weather History Graph

Daily Weather History Graph

Search for Another Location

Airport or City:

Trip Planner

Search our weather history database for the weather conditions in past years. The results will help you decide how hot, cold, wet, or windy it might be!

Date:

Astronomy

Aug. 25, 2013 Rise Set
Actual Time 6:02 AM EDT 7:34 PM EDT
Civil Twilight 5:32 AM EDT 8:04 PM EDT
Nautical Twilight 4:56 AM EDT 8:40 PM EDT
Astronomical Twilight 4:17 AM EDT 9:19 PM EDT
Moon 9:51 PM EDT (8/25) 11:13 AM EDT (8/25)
Length of Visible Light 14h 31m
Length of Day
13h 31m
Waning Gibbous, 76% of the Moon is Illuminated
Aug 25
Waning Gibbous
Aug 28
Last Quarter
Sep 5
New
Sep 12
First Quarter
Sep 19
Full

Hourly Weather History & Observations

Time (EDT) Temp. Dew Point Humidity Pressure Visibility Wind Dir Wind Speed Gust Speed Precip Events Conditions
12:15 AM 47.5 °F 46.6 °F 97% 30.34 in 1.2 mi Calm Calm - N/A   Mist
12:35 AM 48.2 °F 47.3 °F 97% 30.34 in 1.2 mi Calm Calm - N/A   Mist
12:55 AM 47.5 °F 46.8 °F 97% 30.34 in 10.0 mi Calm Calm - N/A   Clear
1:15 AM 46.6 °F 45.9 °F 97% 30.34 in 4.0 mi Calm Calm - N/A   Clear
1:35 AM 46.0 °F 45.3 °F 97% 30.34 in 2.5 mi Calm Calm - N/A   Clear
1:55 AM 46.2 °F 45.5 °F 97% 30.33 in 5.0 mi Calm Calm - N/A   Clear
2:15 AM 45.0 °F 44.2 °F 97% 30.34 in 4.0 mi Calm Calm - N/A   Clear
2:35 AM 44.4 °F 43.9 °F 98% 30.34 in 1.0 mi Calm Calm - N/A   Mist
2:55 AM 43.9 °F 43.2 °F 97% 30.34 in 5.0 mi Calm Calm - N/A   Clear
3:15 AM 44.1 °F 43.7 °F 99% 30.34 in 1.8 mi Calm Calm - N/A   Scattered Clouds
3:35 AM 44.1 °F 43.7 °F 99% 30.34 in 4.0 mi Calm Calm - N/A   Scattered Clouds
3:55 AM 44.1 °F 43.5 °F 98% 30.34 in 1.0 mi Calm Calm - N/A   Mostly Cloudy
4:15 AM 42.8 °F 42.4 °F 99% 30.35 in 1.2 mi Calm Calm - N/A   Overcast
4:35 AM 43.9 °F 43.3 °F 98% 30.36 in 0.2 mi Calm Calm - N/A Fog Fog
4:55 AM 44.6 °F 43.9 °F 97% 30.36 in 0.2 mi Calm Calm - N/A Fog Fog
5:15 AM 44.6 °F 44.1 °F 98% 30.36 in 0.2 mi Calm Calm - N/A Fog Fog
5:35 AM 45.1 °F 44.6 °F 98% 30.37 in 0.2 mi Calm Calm - N/A Fog Fog
5:55 AM 45.0 °F 44.4 °F 98% 30.37 in 0.2 mi Calm Calm - N/A Fog Fog
6:15 AM 45.1 °F 44.6 °F 98% 30.37 in 0.2 mi Calm Calm - N/A Fog Fog
6:35 AM 45.9 °F 45.5 °F 99% 30.38 in 0.2 mi Calm Calm - N/A Fog Fog
6:55 AM 46.6 °F 46.0 °F 98% 30.38 in 0.2 mi Calm Calm - N/A Fog Fog
7:15 AM 46.9 °F 46.4 °F 98% 30.38 in 0.5 mi Calm Calm - N/A Fog Fog
7:35 AM 47.8 °F 47.3 °F 98% 30.39 in 0.8 mi Calm Calm - N/A   Overcast
7:55 AM 48.2 °F 47.7 °F 98% 30.38 in 0.5 mi Calm Calm - N/A Fog Fog
8:15 AM 49.8 °F 49.1 °F 97% 30.38 in 1.0 mi Calm Calm - N/A   Overcast
8:35 AM 50.4 °F 49.8 °F 98% 30.38 in 10.0 mi Calm Calm - N/A   Mostly Cloudy
8:55 AM 52.2 °F 51.4 °F 97% 30.38 in 10.0 mi Calm Calm - N/A   Scattered Clouds
9:15 AM 54.5 °F 53.8 °F 97% 30.37 in 10.0 mi Calm Calm - N/A   Clear
9:35 AM 57.2 °F 56.3 °F 97% 30.37 in 10.0 mi Calm Calm - N/A   Clear
9:55 AM 60.8 °F 59.2 °F 94% 30.36 in 10.0 mi Calm Calm - N/A   Clear
10:15 AM 64.9 °F 55.8 °F 72% 30.35 in 10.0 mi Calm Calm - N/A   Clear
10:35 AM 67.5 °F 55.6 °F 66% 30.34 in 10.0 mi Calm Calm - N/A   Clear
10:55 AM 70.0 °F 54.5 °F 58% 30.33 in 10.0 mi Calm Calm - N/A   Clear
11:15 AM 73.2 °F 47.8 °F 41% 30.32 in 10.0 mi NW 6.9 mph - N/A   Clear
11:35 AM 73.4 °F 49.3 °F 42% 30.32 in 10.0 mi WNW 4.6 mph - N/A   Clear
11:55 AM 74.3 °F 50.2 °F 43% 30.30 in 10.0 mi Calm Calm - N/A   Clear
12:15 PM 75.0 °F 49.6 °F 41% 30.30 in 10.0 mi West 6.9 mph - N/A   Clear
12:35 PM 75.7 °F 48.9 °F 39% 30.29 in 10.0 mi WNW 5.8 mph - N/A   Clear
12:55 PM 76.5 °F 44.2 °F 32% 30.28 in 10.0 mi Calm Calm - N/A   Clear
1:15 PM 77.2 °F 46.0 °F 33% 30.28 in 10.0 mi WNW 5.8 mph - N/A   Clear
1:35 PM 77.4 °F 46.0 °F 33% 30.29 in 10.0 mi WSW 6.9 mph - N/A   Clear
1:55 PM 77.2 °F 46.0 °F 33% 30.28 in 10.0 mi West 6.9 mph - N/A   Clear
2:15 PM 77.9 °F 40.8 °F 27% 30.28 in 10.0 mi West 6.9 mph - N/A   Clear
2:35 PM 78.3 °F 42.8 °F 28% 30.27 in 10.0 mi WSW 4.6 mph - N/A   Clear
2:55 PM 78.6 °F 44.4 °F 30% 30.26 in 10.0 mi West 9.2 mph - N/A   Clear
3:15 PM 78.8 °F 46.9 °F 32% 30.24 in 10.0 mi SSW 5.8 mph - N/A   Clear
3:35 PM 78.3 °F 46.8 °F 33% 30.24 in 10.0 mi WSW 5.8 mph - N/A   Clear
3:55 PM 78.1 °F 48.9 °F 36% 30.24 in 10.0 mi WSW 3.5 mph - N/A   Clear
4:15 PM 78.3 °F 48.9 °F 36% 30.23 in 10.0 mi West 3.5 mph - N/A   Clear
4:35 PM 79.0 °F 48.6 °F 34% 30.22 in 10.0 mi West 5.8 mph - N/A   Clear
4:55 PM 78.6 °F 49.5 °F 36% 30.21 in 10.0 mi West 4.6 mph - N/A   Clear
5:15 PM 78.8 °F 50.2 °F 37% 30.21 in 10.0 mi SW 3.5 mph - N/A   Clear
5:35 PM 78.3 °F 46.2 °F 32% 30.20 in 10.0 mi West 8.1 mph - N/A   Clear
5:55 PM 77.7 °F 45.5 °F 32% 30.19 in 10.0 mi West 4.6 mph - N/A   Clear
6:15 PM 76.3 °F 45.5 °F 33% 30.18 in 10.0 mi WSW 3.5 mph - N/A   Clear
6:35 PM 73.0 °F 52.5 °F 48% 30.18 in 10.0 mi Calm Calm - N/A   Clear
6:55 PM 69.4 °F 57.2 °F 65% 30.18 in 10.0 mi Calm Calm - N/A   Clear
7:15 PM 66.9 °F 56.1 °F 68% 30.17 in 10.0 mi Calm Calm - N/A   Clear
7:35 PM 65.7 °F 57.6 °F 75% 30.18 in 10.0 mi Calm Calm - N/A   Clear
7:55 PM 63.7 °F 57.4 °F 80% 30.17 in 7.0 mi Calm Calm - N/A   Clear
8:15 PM 62.2 °F 58.3 °F 87% 30.18 in 10.0 mi Calm Calm - N/A   Clear
8:35 PM 62.6 °F 57.7 °F 84% 30.17 in 10.0 mi Calm Calm - N/A   Clear
8:55 PM 61.9 °F 57.7 °F 86% 30.17 in 10.0 mi Calm Calm - N/A   Clear
9:15 PM 61.3 °F 58.1 °F 89% 30.17 in 10.0 mi Calm Calm - N/A   Clear
9:35 PM 60.8 °F 57.6 °F 89% 30.17 in 10.0 mi Calm Calm - N/A   Clear
9:55 PM 59.5 °F 57.0 °F 91% 30.17 in 10.0 mi Calm Calm - N/A   Clear
10:15 PM 59.4 °F 57.0 °F 92% 30.17 in 10.0 mi Calm Calm - N/A   Clear
10:35 PM 59.2 °F 56.8 °F 92% 30.17 in 10.0 mi Calm Calm - N/A   Clear
10:55 PM 59.0 °F 56.8 °F 93% 30.17 in 10.0 mi Calm Calm - N/A   Clear
11:15 PM 59.0 °F 56.8 °F 93% 30.17 in 10.0 mi Calm Calm - N/A   Clear
11:35 PM 59.2 °F 57.2 °F 93% 30.16 in 10.0 mi Calm Calm - N/A   Clear
11:55 PM 59.2 °F 57.2 °F 93% 30.16 in 10.0 mi Calm Calm - N/A   Clear